SP8NFE-1 Weather Reports


Display with metric or nautical units.
time (UTC)temp
F
wind
direction
speed
MPH
gust
MPH
rain 1hr
in
rain 24hr
in
rain mn
in
humidity
%
barometer
mb
20260903184203 57 180 0.0 0.0 0.00 0.56 0.51 100
20260903183701 57 180 0.0 0.0 0.00 0.56 0.51 100
20260903183201 58 180 0.0 0.0 0.00 0.56 0.51 100
20260903182702 58 180 0.0 0.0 0.00 0.56 0.51 100
20260903182204 58 180 0.0 0.0 0.00 0.56 0.51 100
20260903181701 58 180 0.0 0.0 0.00 0.56 0.51 100
20260903181202 58 180 0.0 0.0 0.00 0.56 0.51 100
20260903180702 59 180 0.0 0.0 0.00 0.56 0.51 100
20260903180202 59 180 0.0 0.0 0.00 0.56 0.51 100
20260903175702 59 180 0.0 0.0 0.00 0.56 0.51 100
20260903175202 59 180 0.0 0.0 0.00 0.56 0.51 100
20260903174702 60 180 0.0 0.0 0.00 0.56 0.51 100
20260903174202 60 180 0.0 0.0 0.00 0.56 0.51 100
20260903173702 60 180 0.0 0.0 0.00 0.56 0.51 100
20260903173202 61 180 0.0 0.0 0.00 0.56 0.51 100
20260903172702 61 180 0.0 0.0 0.00 0.56 0.51 99
20260903172202 61 180 0.0 0.0 0.00 0.56 0.51 99
20260903171702 62 180 0.0 0.0 0.00 0.56 0.51 98
20260903171202 63 180 0.0 0.0 0.00 0.56 0.51 98
20260903170702 63 180 0.0 0.0 0.00 0.56 0.51 97
20260903170202 63 180 0.0 0.0 0.00 0.56 0.51 97
20260903165702 64 180 0.0 0.0 0.00 0.56 0.51 96
20260903165202 65 180 0.0 0.0 0.00 0.56 0.51 95
20260903164702 65 180 0.0 0.0 0.00 0.56 0.51 94
20260903164202 66 180 0.0 0.0 0.00 0.56 0.51 93
20260903163702 66 180 0.0 0.0 0.00 0.56 0.51 91
20260903163202 66 180 0.0 0.0 0.00 0.56 0.51 90
20260903162702 67 180 0.0 0.0 0.00 0.56 0.51 90
20260903162204 67 180 0.0 0.0 0.00 0.56 0.51 89
20260903161702 67 180 0.0 0.0 0.00 0.56 0.51 87
20260903161202 67 180 0.0 0.0 0.00 0.56 0.51 86
20260903160702 68 180 0.0 0.0 0.00 0.56 0.51 84
20260903160202 68 180 0.0 0.0 0.00 0.56 0.51 82
20260903155702 69 180 0.0 0.0 0.00 0.56 0.51 81
20260903155202 69 180 0.0 0.0 0.00 0.56 0.51 78
20260903154702 70 180 0.0 0.0 0.00 0.56 0.51 75
20260903154202 71 180 0.0 0.0 0.00 0.56 0.51 73
20260903153702 71 180 0.0 0.0 0.00 0.56 0.51 70
20260903153202 71 180 0.0 0.0 0.00 0.56 0.51 66
20260903152702 71 180 0.0 2.0 0.00 0.56 0.51 58
20260903152202 72 180 0.0 0.0 0.00 0.56 0.51 59
20260903151702 72 180 0.0 1.0 0.00 0.56 0.51 57
20260903151202 72 180 0.0 3.0 0.00 0.56 0.51 53
20260903150702 73 180 0.0 3.0 0.00 0.56 0.51 51
20260903150202 73 180 0.0 3.0 0.00 0.56 0.51 50
20260903145702 73 180 2.0 3.0 0.00 0.56 0.51 50
20260903145202 73 180 0.0 3.0 0.00 0.56 0.51 52
20260903144702 72 180 0.0 3.0 0.00 0.56 0.51 55
20260903144202 72 180 1.0 5.0 0.00 0.56 0.51 53
20260903143702 72 180 5.0 6.0 0.00 0.56 0.51 54
20260903143202 73 180 0.0 5.0 0.00 0.56 0.51 54
20260903142202 73 180 7.0 7.0 0.00 0.56 0.51 52
20260903141702 74 180 0.0 4.0 0.00 0.56 0.51 53
20260903141202 74 180 0.0 3.0 0.00 0.56 0.51 52
20260903140702 73 180 0.0 3.0 0.00 0.56 0.51 54
20260903140202 73 180 0.0 2.0 0.00 0.56 0.51 51
20260903135702 73 180 0.0 6.0 0.00 0.56 0.51 52
20260903135202 73 180 3.0 8.0 0.00 0.56 0.51 53
20260903134702 72 180 4.0 8.0 0.00 0.56 0.51 54
20260903134202 72 180 4.0 8.0 0.00 0.56 0.51 53
20260903133702 72 180 3.0 6.0 0.00 0.56 0.51 55
20260903133202 73 180 0.0 5.0 0.00 0.56 0.51 53
20260903132702 72 180 4.0 7.0 0.00 0.56 0.51 53
20260903132202 73 180 3.0 6.0 0.00 0.56 0.51 52
20260903131702 73 180 3.0 7.0 0.00 0.56 0.51 50
20260903131202 73 180 1.0 9.0 0.00 0.56 0.51 51
20260903130702 73 180 3.0 5.0 0.00 0.56 0.51 51
20260903130202 72 180 0.0 3.0 0.00 0.56 0.51 54
20260903125702 72 180 2.0 5.0 0.00 0.56 0.51 56
20260903125202 72 180 2.0 2.0 0.34 0.56 0.51 63
20260903124702 72 180 0.0 3.0 0.51 0.56 0.51 59
20260903124202 72 180 1.0 4.0 0.51 0.56 0.51 100
20260903123702 72 180 0.0 1.0 0.51 0.56 0.51 61
20260903123202 71 180 0.0 3.0 0.51 0.56 0.51 67
20260903122702 71 180 0.0 5.0 0.51 0.56 0.51 64
20260903122202 72 180 0.0 3.0 0.51 0.56 0.51 63
20260903121702 71 180 0.0 0.0 0.51 0.56 0.51 65
20260903121202 71 180 0.0 4.0 0.51 0.56 0.51 66
20260903120702 71 180 3.0 6.0 0.51 0.56 0.51 100
20260903120202 71 180 1.0 5.0 0.51 0.56 0.51 65
20260903115702 72 180 3.0 6.0 0.51 0.56 0.51 66
20260903115203 71 180 0.0 4.0 0.17 0.22 0.17 70
20260903114703 71 180 0.0 7.0 0.00 0.05 0.00 70
20260903114202 71 180 4.0 4.0 0.00 0.05 0.00 68
20260903113703 71 180 0.0 3.0 0.00 0.05 0.00 73
20260903113203 71 180 0.0 0.0 0.00 0.05 0.00 67
20260903112703 70 180 0.0 3.0 0.00 0.05 0.00 67
20260903112203 70 180 2.0 7.0 0.00 0.05 0.00 100
20260903111703 69 180 0.0 5.0 0.00 0.05 0.00 67
20260903111203 69 180 0.0 5.0 0.00 0.05 0.00 65
20260903110703 70 180 1.0 3.0 0.00 0.05 0.00 72
20260903110203 69 180 0.0 0.0 0.00 0.05 0.00 72
20260903105703 68 180 0.0 4.0 0.00 0.05 0.00 85
20260903105203 68 180 0.0 3.0 0.00 0.05 0.00 84
20260903104703 67 180 0.0 0.0 0.00 0.05 0.00 88
20260903104205 67 180 0.0 0.0 0.00 0.05 0.00 94
20260903102203 65 180 0.0 4.0 0.00 0.05 0.00 97
20260903101703 65 180 0.0 2.0 0.00 0.05 0.00 97
20260903101203 65 180 0.0 0.0 0.00 0.05 0.00 97
20260903100703 64 180 0.0 0.0 0.00 0.05 0.00 98
20260903100203 64 180 0.0 0.0 0.00 0.05 0.00 98
20260903095703 64 180 0.0 0.0 0.00 0.05 0.00 98
20260903095203 64 180 0.0 0.0 0.00 0.05 0.00 98
20260903094709 63 180 0.0 0.0 0.00 0.05 0.00 99
20260903094203 63 180 0.0 0.0 0.00 0.05 0.00 100
20260903093703 63 180 0.0 0.0 0.00 0.05 0.00 100
20260903093203 63 180 0.0 0.0 0.00 0.05 0.00 100
20260903092703 63 180 0.0 0.0 0.00 0.05 0.00 100
20260903092203 63 180 0.0 0.0 0.00 0.05 0.00 100
20260903091703 62 180 0.0 0.0 0.00 0.05 0.00 100
20260903091203 62 180 0.0 0.0 0.00 0.05 0.00 100
20260903090703 61 180 0.0 0.0 0.00 0.05 0.00 100
20260903090203 61 180 0.0 0.0 0.00 0.05 0.00 100
20260903085703 61 180 0.0 0.0 0.00 0.05 0.00 100
20260903085203 60 180 0.0 0.0 0.00 0.05 0.00 100
20260903084703 60 180 0.0 0.0 0.00 0.05 0.05 100
20260903084203 60 180 0.0 0.0 0.00 0.05 0.05 100
20260903083703 59 180 0.0 0.0 0.00 0.05 0.05 100
20260903083203 59 180 0.0 0.0 0.00 0.05 0.05 100
20260903082703 59 180 0.0 0.0 0.00 0.05 0.05 100
20260903082203 59 180 0.0 0.0 0.00 0.05 0.05 100
20260903081703 58 180 0.0 0.0 0.00 0.05 0.05 100
20260903081203 58 180 0.0 0.0 0.00 0.05 0.05 100
20260903080703 58 180 0.0 0.0 0.00 0.05 0.05 100
20260903080203 58 180 0.0 0.0 0.00 0.05 0.05 100
20260903075703 58 180 0.0 0.0 0.00 0.05 0.05 100
20260903075203 58 180 0.0 0.0 0.00 0.05 0.05 100
20260903074703 57 180 0.0 0.0 0.00 0.05 0.05 100
20260903074203 57 180 0.0 0.0 0.00 0.05 0.05 100
20260903073703 57 180 0.0 0.0 0.00 0.05 0.05 100
20260903073203 57 180 0.0 0.0 0.00 0.05 0.05 100
20260903072703 57 180 0.0 0.0 0.00 0.05 0.05 100
20260903072203 56 180 0.0 0.0 0.00 0.05 0.05 100
20260903071703 56 180 0.0 0.0 0.00 0.05 0.05 100
20260903071204 56 180 0.0 0.0 0.00 0.05 0.05 100
20260903070703 56 180 0.0 0.0 0.01 0.05 0.05 100
20260903070203 55 180 0.0 0.0 0.02 0.05 0.05 100
20260903065703 55 180 0.0 0.0 0.02 0.05 0.05 100
20260903065203 55 180 0.0 0.0 0.02 0.05 0.05 100
20260903064703 55 180 0.0 0.0 0.02 0.05 0.05 100
20260903064203 55 180 0.0 0.0 0.04 0.05 0.05 100
20260903063703 55 180 0.0 0.0 0.04 0.05 0.05 100
20260903063203 55 180 0.0 0.0 0.04 0.05 0.05 100
20260903062703 55 180 0.0 0.0 0.04 0.05 0.05 100
20260903062203 55 180 0.0 3.0 0.04 0.05 0.05 100
20260903061703 55 180 0.0 0.0 0.04 0.05 0.05 100
20260903061203 54 180 0.0 0.0 0.04 0.05 0.05 100
20260903060703 54 180 0.0 0.0 0.04 0.04 0.04 100
20260903060203 54 180 0.0 0.0 0.03 0.03 0.03 100
20260903055703 54 180 0.0 0.0 0.03 0.03 0.03 100
20260903055203 53 180 0.0 0.0 0.03 0.03 0.03 100
20260903054703 53 180 0.0 0.0 0.03 0.03 0.03 100
20260903054203 53 180 0.0 0.0 0.01 0.01 0.01 100
20260903053703 53 180 0.0 7.0 0.01 0.01 0.01 100
20260903053203 52 180 5.0 5.0 0.01 0.01 0.01 100
20260903052703 51 180 0.0 0.0 0.01 0.01 0.01 100
20260903052203 51 180 0.0 0.0 0.01 0.01 0.01 100
20260903051703 51 180 0.0 0.0 0.01 0.01 0.01 100
20260903051203 51 180 0.0 0.0 0.01 0.01 0.01 100
20260903050703 51 180 0.0 0.0 0.00 0.00 0.00 100
20260903050204 50 180 0.0 0.0 0.00 0.00 0.00 100
20260903045704 50 180 0.0 0.0 0.00 0.00 0.00 100
20260903045204 50 180 0.0 0.0 0.00 0.00 0.00 100
20260903044704 49 180 0.0 0.0 0.00 0.01 0.00 100
20260903044204 49 180 0.0 0.0 0.00 0.01 0.00 100
20260903043704 48 180 0.0 0.0 0.00 0.01 0.00 100
20260903043204 49 180 0.0 0.0 0.00 0.01 0.00 100
20260903042740 48 180 0.0 0.0 0.00 0.01 0.00 100
20260903042704 48 180 0.0 0.0 0.00 0.01 0.00 100
20260903042204 48 180 0.0 0.0 0.00 0.01 0.00 100
20260903041704 48 180 0.0 0.0 0.00 0.01 0.00 100
20260903041204 48 180 0.0 0.0 0.00 0.01 0.00 100
20260903040704 48 180 0.0 0.0 0.00 0.01 0.00 100
20260903040204 48 180 0.0 0.0 0.00 0.01 0.00 100
20260903035704 48 180 0.0 0.0 0.00 0.01 0.00 100
20260903035204 48 180 0.0 0.0 0.00 0.01 0.00 100
20260903034704 48 180 0.0 0.0 0.00 0.01 0.00 100
20260903034204 48 180 0.0 0.0 0.00 0.01 0.00 100
20260903033704 48 180 0.0 0.0 0.00 0.01 0.00 100
20260903033204 48 180 0.0 0.0 0.00 0.01 0.00 100
20260903032704 48 180 0.0 0.0 0.00 0.01 0.00 100
20260903032204 48 180 0.0 0.0 0.00 0.01 0.00 100
20260903031704 48 180 0.0 0.0 0.00 0.01 0.00 100
20260903031204 48 180 0.0 0.0 0.00 0.01 0.00 100
20260903030704 48 180 0.0 0.0 0.00 0.01 0.00 100
20260903030204 48 180 0.0 0.0 0.00 0.01 0.00 100
20260903025704 48 180 0.0 0.0 0.00 0.01 0.00 100
20260903025204 48 180 0.0 0.0 0.00 0.01 0.00 100
20260903024704 48 180 0.0 0.0 0.00 0.01 0.00 100
20260903024204 48 180 0.0 0.0 0.00 0.01 0.00 100
20260903023704 48 180 0.0 0.0 0.00 0.01 0.00 100
20260903023204 48 180 0.0 0.0 0.00 0.01 0.00 100
20260903022704 48 180 0.0 0.0 0.00 0.01 0.00 100
20260903022204 48 180 0.0 0.0 0.00 0.01 0.00 100
20260903021704 48 180 0.0 0.0 0.00 0.01 0.00 100
20260903021204 48 180 0.0 0.0 0.00 0.01 0.00 100
20260903020704 48 180 0.0 0.0 0.00 0.01 0.00 100
20260903020204 48 180 0.0 0.0 0.00 0.01 0.00 100
20260903015704 48 180 0.0 0.0 0.00 0.01 0.00 100
20260903015204 48 180 0.0 0.0 0.00 0.01 0.00 100
20260903014704 48 180 0.0 0.0 0.00 0.01 0.00 100
20260903014204 49 180 0.0 0.0 0.00 0.01 0.00 100
20260903013704 49 180 0.0 0.0 0.00 0.01 0.00 100
20260903013204 49 180 0.0 0.0 0.00 0.01 0.00 100
20260903012704 49 180 0.0 0.0 0.00 0.01 0.00 100
20260903012204 49 180 0.0 0.0 0.00 0.01 0.00 100
20260903011704 49 180 0.0 0.0 0.00 0.01 0.00 100
20260903011204 49 180 0.0 0.0 0.00 0.01 0.00 100
20260903010704 49 180 0.0 0.0 0.00 0.01 0.00 100
20260903010204 49 180 0.0 0.0 0.00 0.01 0.00 100
20260903005704 49 180 0.0 0.0 0.00 0.01 0.00 100
20260903005204 49 180 0.0 0.0 0.00 0.01 0.00 100
20260903004704 49 180 0.0 0.0 0.00 0.01 0.00 100
20260903004204 49 180 0.0 0.0 0.00 0.01 0.00 100
20260903003704 49 180 0.0 0.0 0.00 0.01 0.00 100
20260903003204 50 180 0.0 0.0 0.00 0.01 0.00 100
20260903002704 49 180 0.0 0.0 0.00 0.01 0.00 100
20260903002204 49 180 0.0 0.0 0.00 0.01 0.00 100
20260903001704 50 180 0.0 0.0 0.00 0.01 0.00 100
20260903001204 50 180 0.0 0.0 0.00 0.01 0.00 100
20260903000704 50 180 0.0 0.0 0.00 0.01 0.00 100
20260903000204 50 180 0.0 0.0 0.00 0.01 0.00 100
20260902235704 50 180 0.0 0.0 0.00 0.01 0.00 100
20260902235204 50 180 0.0 0.0 0.00 0.01 0.00 100
20260902234704 50 180 0.0 0.0 0.00 0.01 0.00 100
20260902234204 51 180 0.0 0.0 0.00 0.01 0.00 100
20260902233704 51 180 0.0 0.0 0.00 0.01 0.00 100
20260902233204 51 180 0.0 0.0 0.00 0.01 0.00 100
20260902232704 51 180 0.0 0.0 0.00 0.01 0.00 100
20260902232204 51 180 0.0 0.0 0.00 0.01 0.00 100
20260902231704 51 180 0.0 0.0 0.00 0.01 0.00 100
20260902231204 51 180 0.0 0.0 0.00 0.01 0.00 100
20260902230704 52 180 0.0 0.0 0.00 0.01 0.00 100
20260902230204 52 180 0.0 0.0 0.00 0.01 0.00 100
20260902225704 52 180 0.0 0.0 0.00 0.01 0.00 100
20260902225204 52 180 0.0 0.0 0.00 0.01 0.00 100
20260902224704 52 180 0.0 0.0 0.00 0.01 0.00 100
20260902224204 52 180 0.0 0.0 0.00 0.01 0.00 100
20260902223705 52 180 0.0 0.0 0.00 0.01 0.00 100
20260902223205 53 180 0.0 0.0 0.00 0.01 0.00 100
20260902222705 53 180 0.0 0.0 0.00 0.01 0.00 100
20260902222205 53 180 0.0 0.0 0.00 0.01 0.00 100
20260902221705 53 180 0.0 0.0 0.00 0.01 0.00 100
20260902221205 53 180 0.0 0.0 0.00 0.01 0.00 100
20260902220705 53 180 0.0 0.0 0.00 0.01 0.00 100
20260902220205 53 180 0.0 0.0 0.00 0.01 0.00 100
20260902215705 54 180 0.0 0.0 0.00 0.01 0.00 100
20260902215205 54 180 0.0 0.0 0.00 0.01 0.00 100
20260902214705 54 180 0.0 0.0 0.00 0.01 0.00 100
20260902214205 54 180 0.0 0.0 0.00 0.01 0.00 100
20260902213705 54 180 0.0 0.0 0.00 0.01 0.00 100
20260902213205 54 180 0.0 0.0 0.00 0.01 0.00 100
20260902212705 55 180 0.0 0.0 0.00 0.01 0.00 100
20260902212205 54 180 0.0 0.0 0.00 0.01 0.00 100
20260902211705 55 180 0.0 0.0 0.00 0.01 0.00 100
20260902211205 55 180 0.0 0.0 0.00 0.01 0.00 100
20260902210705 55 180 0.0 0.0 0.00 0.01 0.00 100
20260902210205 55 180 0.0 0.0 0.00 0.01 0.00 100
20260902205705 55 180 0.0 0.0 0.00 0.01 0.00 100
20260902205205 55 180 0.0 0.0 0.00 0.01 0.00 100
20260902204705 56 180 0.0 0.0 0.00 0.01 0.00 100
20260902204205 56 180 0.0 0.0 0.00 0.01 0.00 100
20260902203705 56 180 0.0 0.0 0.00 0.01 0.00 100
20260902203205 56 180 0.0 0.0 0.00 0.01 0.00 100
20260902202705 56 180 0.0 0.0 0.00 0.01 0.00 100
20260902202205 57 180 0.0 0.0 0.00 0.01 0.00 100
20260902201705 57 180 0.0 0.0 0.00 0.01 0.00 100
20260902201205 57 180 0.0 0.0 0.00 0.01 0.00 100
20260902200705 57 180 0.0 0.0 0.00 0.01 0.00 100
20260902200205 57 180 0.0 0.0 0.00 0.01 0.00 100
20260902195705 58 180 0.0 0.0 0.00 0.01 0.00 100
20260902195205 58 180 0.0 0.0 0.00 0.01 0.00 100
20260902194705 59 180 0.0 0.0 0.00 0.01 0.00 100
20260902194205 59 180 0.0 0.0 0.00 0.01 0.00 100
20260902193705 59 180 0.0 0.0 0.00 0.01 0.00 100
20260902193205 59 180 0.0 0.0 0.00 0.01 0.00 100
20260902192705 59 180 0.0 0.0 0.00 0.01 0.00 100
20260902192205 59 180 0.0 0.0 0.00 0.01 0.00 100
20260902191705 59 180 0.0 0.0 0.00 0.01 0.00 100
20260902191205 59 180 0.0 0.0 0.00 0.01 0.00 100
20260902190705 60 180 0.0 0.0 0.00 0.01 0.00 100
20260902190205 59 180 0.0 0.0 0.00 0.01 0.00 100
20260902185705 59 180 0.0 0.0 0.00 0.01 0.00 100
20260902185207 60 180 0.0 0.0 0.00 0.01 0.00 100
20260902184705 60 180 0.0 0.0 0.00 0.01 0.00 100